Content
SEND FEEDBACK

Daily
Averages
Monthly
Summary
Australia

QUEANBEYAN, NEW SOUTH WALES


Home > Oceania > Australia > New South Wales
Elevation: 1902 feet     Latitude: 35 21S     Longitude: 149 13E

WEATHER
 
SELECT A DAY
Number of Records: 279,335;   Date Range: 12/6/97 - 8/31/14
 
SHARE

PRINT THIS DATA

[ ← Previous Day ]
WEATHER ALMANAC - FEBRUARY 13, 2013
[ Next Day → ]
[ °C ]   °F
Weather ElementAverageHighLow
Temperature64 °F78 °F (5:00 pm)48 °F (5:00 am)
Dewpoint49.7 °F54 °F (9:00 pm)46 °F (5:00 am)
Humidity61.7 %93 % (5:00 am)24 % (3:00 pm)
Barometer30.20 in30.27 in (8:00 am)30.08 in (5:00 pm)
Wind Speed7 mph17.3 mph (8:00 pm)
Weather ElementAverage
Visibility6.3 mi
Wind DirectionE (87.2 °)

Weather ElementTotal
Precipitation---
Heating Degree Days2 (Base 65)
Growing Degree Days13 (Base 50)
Averaged from 62 records on February 13, 2013
WEATHER CONDITIONS BREAKOUT
WIND DIRECTION BREAKOUT
WEATHER BY HOUR - FEBRUARY 13, 2013
[ °C ]   °F
Local TimeTemperatureDewpointHumidityBarometerVisibilityWind DirectionWind SpeedGust SpeedPrecipitationEventsConditions
12:00 AM57.2 °F50.0 °F77 %30.24 in6.2 miEast (100°)4.6 mph
12:30 AM57.2 °F50.0 °F77 %30.24 in6.2 miSSE (150°)5.8 mphScattered Clouds
1:00 AM55.4 °F50.0 °F82 %30.24 in6.2 miESE (120°)5.8 mphMostly Cloudy
1:30 AM55.4 °F48.2 °F77 %30.24 in6.2 miSE (130°)5.8 mph
2:00 AM56.0 °F48.0 °F66 %30.18 inCalm
2:00 AM55.4 °F48.2 °F77 %30.24 in6.2 miCalmScattered Clouds
2:30 AM57.2 °F50.0 °F77 %30.24 in6.2 miENE (70°)4.6 mphOvercast
3:00 AM57.2 °F50.0 °F77 %30.24 in6.2 miSE (130°)2.3 mphOvercast
3:00 AM57.0 °F51.0 °F72 %30.17 inSE (130°)2.3 mphOvercast
3:30 AM55.4 °F51.8 °F88 %30.21 in6.2 miCalmMostly Cloudy
4:00 AM53.6 °F48.2 °F82 %30.21 in6.2 miEast (100°)4.6 mphScattered Clouds
4:30 AM51.8 °F48.2 °F88 %30.21 in6.2 miEast (80°)4.6 mphPartly Cloudy
5:00 AM48.0 °F46.0 °F91 %30.17 inEast (90°)4.6 mph
5:00 AM48.2 °F46.4 °F93 %30.21 in6.2 miEast (90°)4.6 mphPartly Cloudy
5:30 AM50.0 °F46.4 °F87 %30.21 in6.2 miESE (120°)4.6 mphScattered Clouds
6:00 AM50.0 °F46.4 °F87 %30.24 in6.2 miNE (50°)3.5 mphMostly Cloudy
6:00 AM50.0 °F47.0 °F86 %30.17 inENE (60°)3.5 mph
6:30 AM51.8 °F48.2 °F88 %30.24 in6.2 miCalmMostly Cloudy
7:00 AM53.6 °F50.0 °F88 %30.24 in6.2 miCalmMostly Cloudy
7:30 AM53.6 °F50.0 °F88 %30.24 in6.2 miCalmMostly Cloudy
8:00 AM56.0 °F51.0 °F77 %30.20 inCalm
8:00 AM55.4 °F50.0 °F82 %30.27 in6.2 miCalmMostly Cloudy
8:30 AM59.0 °F51.8 °F77 %30.27 in6.2 miNorth (350°)1.2 mphMostly Cloudy
9:00 AM60.8 °F51.8 °F72 %30.27 in6.2 miESE (110°)6.9 mphPartly Cloudy
9:00 AM61.0 °F51.0 °F62 %30.22 in12.0 miESE (110°)6.9 mphPartly Cloudy
9:30 AM62.6 °F51.8 °F68 %30.27 in6.2 miSouth (170°)6.9 mphPartly Cloudy
10:00 AM64.4 °F51.8 °F64 %30.27 in6.2 miSSW (210°)5.8 mphMostly Cloudy
10:30 AM66.2 °F50.0 °F56 %30.27 in6.2 miESE (110°)6.9 mphScattered Clouds
11:00 AM68.0 °F49.0 °F40 %30.20 inESE (120°)5.8 mph
11:00 AM68.0 °F50.0 °F52 %30.27 in6.2 miESE (120°)5.8 mphPartly Cloudy
11:30 AM69.8 °F48.2 °F46 %30.24 in6.2 miSSW (200°)3.5 mphPartly Cloudy
12:00 PM71.6 °F48.2 °F43 %30.24 in6.2 miEast (80°)9.2 mphPartly Cloudy
12:00 PM71.0 °F49.0 °F34 %30.19 inEast (80°)9.2 mph
12:30 PM71.6 °F48.2 °F43 %30.24 in6.2 miNNE (30°)6.9 mphPartly Cloudy
1:00 PM73.4 °F48.2 °F41 %30.21 in6.2 miEast (100°)9.2 mphPartly Cloudy
1:30 PM73.4 °F48.2 °F41 %30.21 in6.2 miNNE (30°)10.4 mphPartly Cloudy
2:00 PM76.0 °F48.0 °F27 %30.14 inEast (100°)8.1 mph
2:00 PM77.0 °F48.2 °F36 %30.21 in6.2 miEast (100°)8.1 mphPartly Cloudy
2:30 PM75.2 °F46.4 °F36 %30.18 in6.2 miNE (50°)13.8 mphPartly Cloudy
3:00 PM77.0 °F48.2 °F36 %30.18 in6.2 miNE (50°)9.2 mphPartly Cloudy
3:00 PM77.0 °F47.0 °F24 %30.12 inENE (60°)9.2 mph
3:30 PM77.0 °F48.2 °F36 %30.15 in6.2 miEast (100°)9.2 mphPartly Cloudy
4:00 PM77.0 °F46.4 °F34 %30.15 inNNE (30°)9.2 mphClear
4:30 PM77.0 °F48.2 °F36 %30.15 inNE (50°)11.5 mphClear
5:00 PM78.0 °F48.0 °F24 %30.08 inENE (70°)9.2 mph
5:00 PM77.0 °F48.2 °F36 %30.12 inENE (70°)9.2 mphClear
5:30 PM77.0 °F48.2 °F36 %30.12 inNE (40°)11.5 mphClear
6:00 PM77.0 °F48.2 °F36 %30.15 inENE (70°)13.8 mphClear
6:00 PM76.0 °F49.0 °F28 %30.09 inENE (70°)13.8 mph
6:30 PM75.2 °F50.0 °F41 %30.12 in6.2 miENE (70°)15.0 mphPartly Cloudy
7:00 PM73.4 °F50.0 °F44 %30.15 in6.2 miEast (80°)13.8 mphPartly Cloudy
7:30 PM69.8 °F51.8 °F53 %30.15 in6.2 miEast (80°)16.1 mphPartly Cloudy
8:00 PM68.0 °F53.6 °F60 %30.15 in6.2 miEast (80°)17.3 mphPartly Cloudy
8:30 PM66.2 °F53.6 °F64 %30.18 in6.2 miEast (80°)12.7 mphPartly Cloudy
9:00 PM64.4 °F53.6 °F68 %30.21 in6.2 miEast (80°)11.5 mph
9:00 PM64.0 °F54.0 °F61 %30.15 inEast (80°)11.5 mph
9:30 PM62.6 °F53.6 °F72 %30.21 in6.2 miEast (80°)8.1 mph
10:00 PM60.8 °F53.6 °F77 %30.24 in6.2 miEast (80°)8.1 mph
10:30 PM60.8 °F53.6 °F77 %30.24 in6.2 miEast (80°)8.1 mph
11:00 PM59.0 °F53.0 °F76 %30.18 inEast (90°)6.9 mph
11:00 PM59.0 °F53.6 °F82 %30.24 in6.2 miEast (90°)6.9 mph
11:30 PM59.0 °F53.6 °F82 %30.24 in6.2 miSSE (160°)3.5 mph
Hourly data recorded from YSCB, located miles away from Queanbeyan, New South Wales







STORIES FROM OUR PARTNERS